Location: Bu�n Treun
(12.1333°N, 108.3167°E)
Time: 22:50:01
(UTC+00:00)

GOES 2 Rocket - Pass Details

Date: 13 July 2020
Orbit: 569 x 1674 km, 28.4° (Epoch: 14 August)

Event Time Altitude Azimuth Distance (km) Brightness Sun altitude
Rises 21:41:52 0° 293° (WNW) 3,902 6.8 -11.5°
Reaches altitude 10° 21:44:59 10° 291° (WNW) 2,756 6.0 -10.8°
Maximum altitude 21:51:23 64° 211° (SSW) 885 3.6 -9.4°
Drops below altitude 10° 21:56:16 10° 129° (SE) 2,118 6.2 -8.3°
Sets 21:58:24 0° 126° (SE) 2,936 7.0 -7.8°
